EW3006 Weather Reports


Display with metric or nautical units.
time (UTC)temp
F
wind
direction
speed
MPH
gust
MPH
rain 1hr
in
rain 24hr
in
rain mn
in
humidity
%
barometer
mb
20190120225515 59 157 7.0 12.0 0.00 0.01 0.01 79 1006.0
20190120224515 59 157 10.0 13.0 0.00 0.01 0.01 81 1006.0
20190120223515 59 157 10.0 13.0 0.00 0.01 0.01 83 1006.2
20190120222515 59 135 9.0 12.0 0.00 0.01 0.01 85 1006.1
20190120221515 59 135 10.0 15.0 0.00 0.01 0.01 85 1006.3
20190120220515 59 135 13.0 17.0 0.00 0.01 0.01 86 1006.5
20190120215516 59 135 11.0 16.0 0.00 0.01 0.01 87 1006.6
20190120214515 59 135 13.0 20.0 0.00 0.02 0.01 88 1006.8
20190120213515 59 135 14.0 17.0 0.00 0.02 0.01 88 1006.9
20190120212516 59 135 13.0 18.0 0.00 0.02 0.01 89 1007.2
20190120211515 58 135 12.0 17.0 0.00 0.02 0.01 88 1007.4
20190120210515 58 135 14.0 18.0 0.00 0.03 0.01 88 1007.7
20190120205515 58 135 13.0 18.0 0.00 0.03 0.01 89 1007.8
20190120204515 58 135 15.0 21.0 0.00 0.03 0.01 89 1007.9
20190120203515 58 135 13.0 19.0 0.00 0.03 0.01 90 1008.1
20190120202517 57 135 12.0 18.0 0.00 0.03 0.01 90 1008.4
20190120201515 58 135 12.0 18.0 0.00 0.03 0.01 90 1008.8
20190120200517 58 135 11.0 17.0 0.00 0.03 0.01 91 1009.1
20190120195515 58 135 12.0 15.0 0.00 0.03 0.01 91 1009.3
20190120194517 57 135 11.0 17.0 0.00 0.03 0.01 93 1009.7
20190120193517 56 135 9.0 12.0 0.00 0.03 0.01 93 1010.1
20190120192517 56 135 10.0 13.0 0.00 0.03 0.01 94 1010.4
20190120191517 56 135 11.0 16.0 0.00 0.03 0.01 95 1010.4
20190120190517 56 135 9.0 14.0 0.00 0.03 0.01 95 1010.5
20190120185517 55 135 9.0 15.0 0.00 0.03 0.01 96 1010.7
20190120184517 55 135 10.0 14.0 0.00 0.03 0.01 96 1010.8
20190120183517 55 135 10.0 15.0 0.00 0.03 0.01 96 1011.1
20190120182517 55 135 11.0 17.0 0.00 0.03 0.01 97 1011.1
20190120181517 55 135 12.0 16.0 0.00 0.03 0.01 97 1011.1
20190120180517 55 135 11.0 16.0 0.00 0.03 0.01 97 1011.1
20190120175517 54 135 12.0 17.0 0.00 0.03 0.01 97 1011.0
20190120174517 54 135 11.0 17.0 0.00 0.03 0.01 97 1011.2
20190120173517 54 112 15.0 20.0 0.00 0.03 0.01 97 1011.0
20190120172515 54 112 14.0 20.0 0.00 0.03 0.01 97 1010.8
20190120171517 54 112 15.0 20.0 0.00 0.03 0.01 97 1011.1
20190120170516 54 112 15.0 21.0 0.00 0.03 0.01 97 1011.2
20190120165517 53 112 14.0 20.0 0.00 0.03 0.01 97 1011.2
20190120164517 53 112 13.0 19.0 0.00 0.03 0.01 97 1011.2
20190120163518 53 112 13.0 21.0 0.00 0.03 0.01 97 1011.4
20190120162517 53 112 13.0 19.0 0.00 0.03 0.01 97 1011.3
20190120161532 53 112 12.0 15.0 0.00 0.03 0.01 97 1011.3
20190120160517 53 112 12.0 20.0 0.00 0.03 0.01 97 1011.2
20190120155517 53 135 11.0 16.0 0.00 0.03 0.01 97 1011.3
20190120154652 53 112 13.0 18.0 0.00 0.03 0.01 97 1011.1
20190120153752 53 112 12.0 18.0 0.00 0.03 0.01 97 1010.8
20190120151558 53 112 15.0 20.0 0.00 0.04 0.01 96 1010.8
20190120145516 53 135 11.0 15.0 0.00 0.04 0.01 96 1012.0
20190120144517 53 135 12.0 17.0 0.00 0.04 0.01 96 1012.0
20190120143522 54 135 14.0 18.0 0.00 0.04 0.01 95 1011.9
20190120142516 55 135 14.0 22.0 0.00 0.04 0.01 90 1011.7
20190120141516 55 135 15.0 21.0 0.00 0.04 0.01 89 1011.5
20190120140517 55 135 16.0 20.0 0.00 0.04 0.01 89 1011.5
20190120135516 55 135 14.0 21.0 0.00 0.04 0.01 89 1011.4
20190120134516 55 135 16.0 25.0 0.00 0.04 0.01 90 1011.4
20190120133516 55 135 16.0 23.0 0.00 0.04 0.01 94 1011.0
20190120132516 54 135 17.0 25.0 0.00 0.04 0.01 95 1010.7
20190120131517 54 112 19.0 25.0 0.00 0.04 0.01 95 1010.5
20190120130516 54 135 16.0 22.0 0.00 0.04 0.01 96 1011.0
20190120125516 54 135 18.0 25.0 0.00 0.04 0.01 96 1011.4
20190120124516 53 112 18.0 24.0 0.00 0.04 0.01 96 1011.5
20190120123516 53 112 17.0 24.0 0.00 0.04 0.01 96 1011.7
20190120122516 53 112 18.0 27.0 0.01 0.04 0.01 96 1011.9
20190120121517 53 112 15.0 21.0 0.01 0.04 0.01 95 1012.3
20190120120551 54 135 14.0 21.0 0.01 0.04 0.01 95 1012.9
20190120115516 54 135 12.0 18.0 0.01 0.04 0.01 93 1013.1
20190120114521 55 135 11.0 19.0 0.01 0.04 0.01 89 1013.5
20190120113516 55 135 12.0 16.0 0.01 0.04 0.01 88 1013.6
20190120112516 56 135 7.0 13.0 0.00 0.03 0.00 86 1013.7
20190120111521 57 135 9.0 14.0 0.00 0.03 0.00 84 1013.9
20190120110518 57 135 12.0 18.0 0.00 0.03 0.00 83 1013.8
20190120105516 57 135 12.0 17.0 0.00 0.03 0.00 82 1014.0
20190120104516 58 135 13.0 17.0 0.00 0.03 0.00 81 1014.1
20190120103516 58 135 12.0 16.0 0.00 0.03 0.00 81 1014.2
20190120102516 58 135 9.0 14.0 0.00 0.03 0.00 82 1014.2
20190120101516 58 135 10.0 15.0 0.00 0.03 0.00 81 1014.3
20190120100516 58 135 11.0 16.0 0.00 0.03 0.00 81 1014.1
20190120095517 58 135 12.0 19.0 0.00 0.03 0.00 82 1014.3
20190120094516 58 135 12.0 17.0 0.00 0.03 0.00 81 1014.3
20190120093516 58 135 11.0 15.0 0.00 0.03 0.00 81 1014.6
20190120092516 58 135 12.0 17.0 0.00 0.03 0.00 81 1014.5
20190120091516 58 112 12.0 17.0 0.00 0.03 0.00 82 1014.8
20190120090516 57 112 11.0 16.0 0.00 0.03 0.00 84 1014.6
20190120085516 57 112 11.0 15.0 0.00 0.03 0.00 84 1015.2
20190120084516 57 112 11.0 16.0 0.00 0.03 0.00 84 1015.5
20190120083517 57 112 10.0 14.0 0.00 0.03 0.00 84 1015.8
20190120082521 57 112 8.0 12.0 0.00 0.03 0.00 84 1015.9
20190120081516 56 112 8.0 11.0 0.00 0.03 0.00 85 1016.2
20190120080516 56 135 5.0 7.0 0.00 0.03 0.00 88 1016.4
20190120075521 56 157 4.0 5.0 0.00 0.03 0.03 88 1016.6
20190120074516 56 135 5.0 6.0 0.00 0.03 0.03 87 1016.6
20190120073516 56 135 5.0 7.0 0.00 0.03 0.03 89 1016.7
20190120072517 55 135 5.0 8.0 0.00 0.03 0.03 90 1016.7
20190120071516 55 135 4.0 6.0 0.00 0.03 0.03 92 1016.9
20190120070516 54 135 4.0 6.0 0.00 0.04 0.03 93 1016.7
20190120065516 54 135 4.0 5.0 0.00 0.04 0.03 94 1016.7
20190120064846 54 135 3.0 5.0 0.00 0.04 0.03 96 1016.9
20190120055516 51 0.0 0.0 0.00 0.04 0.03 96 1017.1
20190120053601 52 67 2.0 3.0 0.00 0.04 0.03 96 1017.3
20190120052516 52 45 2.0 3.0 0.00 0.04 0.03 96 1017.5
20190120051516 52 22 1.0 2.0 0.00 0.04 0.03 96 1017.8
20190120050516 52 0 1.0 2.0 0.00 0.04 0.03 96 1018.0
20190120045516 52 0.0 0.0 0.00 0.04 0.03 96 1017.8
20190120044516 51 270 1.0 2.0 0.00 0.04 0.03 96 1017.9
20190120043515 51 90 1.0 2.0 0.00 0.04 0.03 96 1017.7
20190120042516 51 0.0 0.0 0.00 0.04 0.03 96 1017.7
20190120041516 52 0.0 1.0 0.00 0.04 0.03 96 1017.8
20190120040516 52 0.0 0.0 0.00 0.04 0.03 95 1017.9
20190120035517 52 0.0 0.0 0.00 0.04 0.03 95 1017.9
20190120034516 52 0.0 0.0 0.00 0.04 0.03 95 1017.9
20190120033516 52 0.0 0.0 0.00 0.04 0.03 94 1017.9
20190120032731 52 0.0 0.0 0.00 0.04 0.03 94 1017.9
20190120031535 53 0.0 0.0 0.00 0.04 0.03 95 1018.0
20190120030515 53 0.0 0.0 0.00 0.04 0.03 95 1018.1
20190120025515 53 0.0 0.0 0.00 0.04 0.03 94 1018.5
20190120024516 53 0.0 0.0 0.00 0.04 0.03 94 1018.5
20190120023516 53 0.0 0.0 0.00 0.04 0.03 94 1018.7
20190120022515 53 0.0 0.0 0.00 0.04 0.03 94 1018.8
20190120021516 54 0.0 0.0 0.00 0.04 0.03 94 1018.9
20190120020515 54 0.0 0.0 0.00 0.04 0.03 94 1019.0
20190120015515 54 0.0 1.0 0.00 0.04 0.03 94 1019.1
20190120014515 54 315 1.0 2.0 0.00 0.04 0.03 93 1019.2
20190120013515 55 315 2.0 4.0 0.00 0.04 0.03 93 1019.3
20190120012515 55 337 1.0 2.0 0.00 0.04 0.03 92 1019.4
20190120011515 55 0.0 0.0 0.00 0.04 0.03 91 1019.3
20190120010515 55 225 1.0 2.0 0.00 0.04 0.03 91 1019.4
20190120005515 55 202 2.0 3.0 0.00 0.04 0.03 91 1019.5
20190120004516 56 225 3.0 4.0 0.00 0.04 0.03 91 1019.7
20190120003516 56 202 3.0 5.0 0.00 0.04 0.03 91 1019.7
20190120002516 56 157 3.0 5.0 0.00 0.04 0.03 91 1019.7
20190120001515 56 135 4.0 6.0 0.00 0.04 0.03 91 1019.9
20190120000515 56 157 4.0 5.0 0.00 0.04 0.03 91 1020.2
20190119235516 56 180 4.0 7.0 0.00 0.04 0.03 91 1020.4
20190119234515 56 180 5.0 8.0 0.00 0.04 0.03 91 1020.5
20190119233517 57 157 4.0 6.0 0.00 0.04 0.03 92 1020.4
20190119230522 56 135 7.0 10.0 0.00 0.04 0.03 92 1020.5